New Orleans Lakefront, LA

10:30 PM CST on November 16, 2019 (GMT -0600)
Lakefront

Weather History for KNEW - September, 2019

Change the Weather History Date:

Sunday, September 8, 2019

  Actual Average Record
Temperature  
Mean Temperature 89 °F 82 °F  
Max Temperature 99 °F 89 °F 99 °F (2019)
Min Temperature 78 °F 74 °F 62 °F (1950)
Degree Days  
Heating Degree Days 0 0  
Month to date heating degree days 0 0  
Since 1 July heating degree days 0 0  
Cooling Degree Days 24 17  
Month to date cooling degree days 180 136  
Year to date cooling degree days 2821 2382  
Growing Degree Days 38 (Base 50)    
Moisture  
Dew Point 75 °F    
Average Humidity 62    
Maximum Humidity 85    
Minimum Humidity 39    
Precipitation  
Precipitation 0.00 in 0.19 in 3.04 in (2000)
Month to date precipitation T 1.54  
Year to date precipitation 46.76 45.75  
Snow  
Snow 0.00 in - - ()
Month to date snowfall 0.0  
Since 1 July snowfall 0.0  
Since 1 September snowfall 0.0  
Snow Depth 0.00 in    
Sea Level Pressure  
Sea Level Pressure 29.97 in    
Wind  
Wind Speed 5 mph (WNW)    
Max Wind Speed 12 mph    
Max Gust Speed 16 mph    
Visibility 8 miles    
Events      
T = Trace of Precipitation, MM = Missing Value Source: NWS Daily Summary

Daily Weather History Graph

Daily Weather History Graph

Search for Another Location

Airport or City:

Astronomy

Sep. 08, 2019 Rise Set
Actual Time 6:40 AM CDT 7:14 PM CDT
Civil Twilight 6:16 AM CDT 7:38 PM CDT
Nautical Twilight 5:48 AM CDT 8:06 PM CDT
Astronomical Twilight 5:19 AM CDT 8:35 PM CDT
Moon 4:02 PM CDT (9/8) 1:41 AM CDT (9/8)
Length of Visible Light 13h 21m
Length of Day
12h 33m
Waxing Gibbous, 75% of the Moon is Illuminated
Sep 8
Waxing Gibbous
Sep 13
Full
Sep 21
Last Quarter
Sep 28
New
Oct 5
First Quarter

Hourly Weather History & Observations

Time (CDT) Temp. Heat Index Dew Point Humidity Pressure Visibility Wind Dir Wind Speed Gust Speed Precip Events Conditions
12:53 AM 90.0 °F 104.5 °F 78.1 °F 68% 29.95 in 8.0 mi WNW 10.4 mph - N/A   Clear
1:53 AM 88.0 °F 101.3 °F 78.1 °F 72% 29.94 in 7.0 mi West 9.2 mph - N/A   Clear
2:53 AM 87.1 °F 99.8 °F 78.1 °F 74% 29.94 in 7.0 mi West 13.8 mph - N/A   Clear
3:53 AM 87.1 °F 97.3 °F 75.9 °F 69% 29.94 in 9.0 mi WNW 15.0 mph - N/A   Clear
4:53 AM 87.1 °F 96.3 °F 75.0 °F 67% 29.95 in 9.0 mi NW 12.7 mph - N/A   Clear
5:53 AM 84.9 °F 93.3 °F 75.0 °F 72% 29.97 in 9.0 mi NW 15.0 mph - N/A   Clear
6:53 AM 84.9 °F 91.4 °F 73.0 °F 67% 29.99 in 8.0 mi NW 15.0 mph - N/A   Clear
7:53 AM 86.0 °F 93.8 °F 73.9 °F 67% 30.01 in 7.0 mi NNW 12.7 mph - N/A   Clear
8:53 AM 86.0 °F 93.8 °F 73.9 °F 67% 30.01 in 8.0 mi NNW 12.7 mph - N/A   Clear
9:53 AM 87.1 °F 95.4 °F 73.9 °F 65% 30.02 in 8.0 mi NNW 9.2 mph - N/A   Clear
10:53 AM 88.0 °F 96.5 °F 73.9 °F 63% 30.02 in 8.0 mi NNW 8.1 mph - N/A   Clear
11:53 AM 90.0 °F 99.0 °F 73.9 °F 59% 30.01 in 9.0 mi NNW 9.2 mph - N/A   Clear
12:53 PM 90.0 °F 99.0 °F 73.9 °F 59% 30.00 in 8.0 mi NW 6.9 mph - N/A   Clear
1:53 PM 91.9 °F 101.3 °F 73.9 °F 55% 29.99 in 9.0 mi WNW 6.9 mph - N/A   Clear
2:53 PM 91.9 °F 103.2 °F 75.0 °F 58% 29.97 in 9.0 mi WNW 5.8 mph - N/A   Clear
3:53 PM 91.9 °F 103.9 °F 75.9 °F 59% 29.95 in 9.0 mi WNW 6.9 mph - N/A   Clear
4:53 PM 93.0 °F 105.3 °F 75.9 °F 57% 29.94 in 8.0 mi NNW 4.6 mph - N/A   Clear
5:53 PM 91.0 °F 101.6 °F 75.0 °F 59% 29.94 in 8.0 mi NW 3.5 mph - N/A   Clear
6:53 PM 91.0 °F 99.3 °F 73.0 °F 55% 29.94 in 8.0 mi NW 3.5 mph - N/A   Clear
7:53 PM 91.0 °F 100.4 °F 73.9 °F 57% 29.96 in 8.0 mi Calm Calm - N/A   Clear
8:53 PM 89.1 °F 98.0 °F 73.9 °F 61% 29.97 in 8.0 mi SSE 5.8 mph - N/A   Clear
9:53 PM 87.1 °F 101.5 °F 79.0 °F 77% 29.98 in 7.0 mi South 5.8 mph - N/A   Clear
10:53 PM 86.0 °F 98.3 °F 78.1 °F 77% 29.98 in 7.0 mi South 4.6 mph - N/A   Clear
11:53 PM 88.0 °F 98.5 °F 75.9 °F 67% 29.98 in 8.0 mi WSW 5.8 mph - N/A   Clear